DHK564 LROP-LFMN

Flight info

Callsign DHK564
Flight time 2h 17m
Altitude 36000
Route POLUN DCT VIKBI DCT ELDET DCT LELTI DCT ANASA DCT SPL DCT XAMIT/N0457F370 DCT UTENO DCT NIKMA DCT TOBGA/N0479F300 DCT DOBIM DCT AKUTI R16 KERIT
Aircraft B752/M-SDE2E3FGHIJ3J4J7RWXY/LB1

Departure

Time 2026-05-07 15:53
Airport Bucharest Henri Coandă International Airport (LROP)

Arrival

Time 2026-05-07 18:11
Airport Nice-Côte d'Azur Airport (LFMN)
Time Latitude Longitude Altitude Speed Heading
2026-05-07 15:22 44.56963 26.09636 312 ft 0 kts 174°
2026-05-07 15:43 44.56955 26.09637 311 ft 0 kts 174°
2026-05-07 15:44 44.56933 26.09640 311 ft 4 kts 178°
2026-05-07 15:44 44.56917 26.09658 311 ft 4 kts 114°
2026-05-07 15:44 44.56914 26.09704 310 ft 5 kts 87°
2026-05-07 15:44 44.56918 26.09766 310 ft 6 kts 83°
2026-05-07 15:45 44.56923 26.09831 309 ft 6 kts 84°
2026-05-07 15:45 44.56930 26.09894 309 ft 5 kts 65°
2026-05-07 15:45 44.56959 26.09915 309 ft 4 kts
2026-05-07 15:45 44.56995 26.09912 310 ft 5 kts 353°
2026-05-07 15:46 44.57080 26.09900 310 ft 6 kts 354°
2026-05-07 15:46 44.57126 26.09894 310 ft 7 kts 354°
2026-05-07 15:46 44.57181 26.09886 310 ft 8 kts 354°
2026-05-07 15:47 44.57245 26.09876 311 ft 9 kts 354°
2026-05-07 15:47 44.57314 26.09866 311 ft 10 kts 354°
2026-05-07 15:47 44.57390 26.09854 311 ft 11 kts 354°
2026-05-07 15:47 44.57473 26.09843 311 ft 12 kts 354°
2026-05-07 15:48 44.57562 26.09816 312 ft 13 kts 326°
2026-05-07 15:48 44.57588 26.09696 312 ft 14 kts 265°
2026-05-07 15:48 44.57577 26.09555 313 ft 14 kts 264°
2026-05-07 15:48 44.57566 26.09407 314 ft 15 kts 264°
2026-05-07 15:49 44.57554 26.09254 315 ft 16 kts 263°
2026-05-07 15:49 44.57542 26.09091 316 ft 17 kts 263°
2026-05-07 15:49 44.57529 26.08922 317 ft 17 kts 263°
2026-05-07 15:49 44.57516 26.08745 318 ft 18 kts 264°
2026-05-07 15:50 44.57505 26.08613 319 ft 0 kts 263°
2026-05-07 15:50 44.57504 26.08595 319 ft 4 kts 264°
2026-05-07 15:50 44.57501 26.08538 319 ft 7 kts 271°
2026-05-07 15:51 44.57530 26.08467 319 ft 9 kts 330°
2026-05-07 15:51 44.57549 26.08459 319 ft 0 kts 353°
2026-05-07 15:51 44.57550 26.08459 319 ft 1 kts 353°
2026-05-07 15:51 44.57587 26.08452 319 ft 6 kts 353°
2026-05-07 15:52 44.57637 26.08461 319 ft 7 kts 31°
2026-05-07 15:52 44.57667 26.08529 319 ft 9 kts 75°
2026-05-07 15:52 44.57679 26.08627 319 ft 11 kts 84°
2026-05-07 15:52 44.57689 26.08771 318 ft 21 kts 84°
2026-05-07 15:53 44.57726 26.09264 316 ft 84 kts 84°
2026-05-07 15:53 44.57813 26.10388 312 ft 146 kts 84°
2026-05-07 15:53 44.57937 26.12008 531 ft 183 kts 85°
2026-05-07 15:53 44.58098 26.13834 1249 ft 199 kts 82°
2026-05-07 15:54 44.58321 26.15750 1935 ft 202 kts 82°
2026-05-07 15:54 44.58508 26.17778 2219 ft 218 kts 85°
2026-05-07 15:54 44.58362 26.19877 2659 ft 226 kts 114°
2026-05-07 15:54 44.57370 26.21654 2943 ft 244 kts 147°
2026-05-07 15:55 44.55740 26.22469 3294 ft 261 kts 177°
2026-05-07 15:55 44.53949 26.21965 3913 ft 267 kts 208°
2026-05-07 15:55 44.52574 26.20266 4654 ft 268 kts 237°
2026-05-07 15:55 44.51879 26.17879 5366 ft 271 kts 255°
2026-05-07 15:56 44.51425 26.15317 6117 ft 272 kts 255°
2026-05-07 15:56 44.50972 26.12733 6858 ft 274 kts 255°
2026-05-07 15:56 44.50559 26.10123 7545 ft 278 kts 264°
2026-05-07 15:56 44.50550 26.07428 8265 ft 280 kts 270°
2026-05-07 15:57 44.50537 26.04685 8982 ft 282 kts 267°
2026-05-07 15:57 44.50475 26.01976 9717 ft 284 kts 266°
2026-05-07 15:57 44.50391 25.99198 10375 ft 289 kts 266°
2026-05-07 15:57 44.50289 25.96309 10653 ft 308 kts 266°
2026-05-07 15:58 44.50170 25.93205 10929 ft 328 kts 266°
2026-05-07 15:58 44.50039 25.89919 11242 ft 345 kts 266°
2026-05-07 15:58 44.49902 25.86587 11968 ft 348 kts 266°
2026-05-07 15:58 44.49761 25.83186 12664 ft 352 kts 266°
2026-05-07 15:59 44.49617 25.79758 13333 ft 355 kts 266°
2026-05-07 15:59 44.49469 25.76290 14041 ft 357 kts 266°
2026-05-07 15:59 44.49321 25.72823 14669 ft 361 kts 266°
2026-05-07 15:59 44.49169 25.69333 15316 ft 364 kts 266°
2026-05-07 16:00 44.49016 25.65814 15908 ft 367 kts 266°
2026-05-07 16:00 44.48859 25.62221 16518 ft 369 kts 266°
2026-05-07 16:00 44.48700 25.58623 17063 ft 372 kts 266°
2026-05-07 16:00 44.48540 25.55046 17629 ft 375 kts 266°
2026-05-07 16:01 44.48376 25.51381 18169 ft 377 kts 266°
2026-05-07 16:01 44.48210 25.47703 18671 ft 380 kts 266°
2026-05-07 16:01 44.48043 25.44037 19215 ft 382 kts 266°
2026-05-07 16:01 44.47872 25.40316 19738 ft 384 kts 266°
2026-05-07 16:02 44.47699 25.36567 20212 ft 388 kts 266°
2026-05-07 16:02 44.47522 25.32759 20752 ft 390 kts 265°
2026-05-07 16:02 44.47342 25.28917 21207 ft 394 kts 265°
2026-05-07 16:02 44.47164 25.25139 21720 ft 395 kts 265°
2026-05-07 16:03 44.46981 25.21275 22204 ft 398 kts 265°
2026-05-07 16:03 44.46795 25.17401 22643 ft 401 kts 265°
2026-05-07 16:03 44.46606 25.13489 23112 ft 404 kts 265°
2026-05-07 16:03 44.46419 25.09620 23544 ft 406 kts 265°
2026-05-07 16:04 44.46225 25.05652 24022 ft 408 kts 265°
2026-05-07 16:04 44.46030 25.01700 24438 ft 411 kts 265°
2026-05-07 16:04 44.45831 24.97689 24883 ft 413 kts 265°
2026-05-07 16:04 44.45631 24.93683 25361 ft 414 kts 265°
2026-05-07 16:05 44.45428 24.89656 25697 ft 418 kts 265°
2026-05-07 16:05 44.45226 24.85651 26173 ft 418 kts 265°
2026-05-07 16:05 44.45018 24.81575 26558 ft 420 kts 265°
2026-05-07 16:05 44.44810 24.77523 26920 ft 422 kts 266°
2026-05-07 16:06 44.44598 24.73427 27327 ft 424 kts 266°
2026-05-07 16:06 44.44383 24.69294 27648 ft 427 kts 265°
2026-05-07 16:06 44.44167 24.65179 28058 ft 428 kts 266°
2026-05-07 16:06 44.43947 24.61010 28394 ft 430 kts 266°
2026-05-07 16:07 44.43726 24.56853 28754 ft 431 kts 265°
2026-05-07 16:07 44.43502 24.52660 29114 ft 433 kts 265°
2026-05-07 16:07 44.43277 24.48478 29435 ft 435 kts 265°
2026-05-07 16:07 44.43045 24.44225 29712 ft 437 kts 265°
2026-05-07 16:08 44.42813 24.39985 30118 ft 437 kts 265°
2026-05-07 16:08 44.42579 24.35731 30442 ft 439 kts 265°
2026-05-07 16:08 44.42342 24.31455 30717 ft 441 kts 265°
2026-05-07 16:08 44.42104 24.27185 30917 ft 445 kts 265°
2026-05-07 16:09 44.41860 24.22829 31303 ft 444 kts 264°
2026-05-07 16:09 44.41617 24.18524 31575 ft 446 kts 265°
2026-05-07 16:09 44.41371 24.14206 31842 ft 447 kts 264°
2026-05-07 16:09 44.41126 24.09933 32251 ft 445 kts 264°
2026-05-07 16:10 44.40877 24.05617 32629 ft 444 kts 264°
2026-05-07 16:10 44.40627 24.01316 32933 ft 444 kts 264°
2026-05-07 16:10 44.40378 23.97036 33307 ft 442 kts 264°
2026-05-07 16:10 44.40125 23.92752 33613 ft 441 kts 264°
2026-05-07 16:11 44.39872 23.88471 33888 ft 441 kts 264°
2026-05-07 16:11 44.39616 23.84178 34184 ft 440 kts 264°
2026-05-07 16:11 44.39364 23.79966 34505 ft 438 kts 264°
2026-05-07 16:11 44.39107 23.75717 34712 ft 438 kts 264°
2026-05-07 16:12 44.38848 23.71454 34917 ft 438 kts 264°
2026-05-07 16:12 44.38589 23.67218 35091 ft 438 kts 264°
2026-05-07 16:12 44.38332 23.63041 35302 ft 437 kts 264°
2026-05-07 16:12 44.38068 23.58766 35453 ft 437 kts 264°
2026-05-07 16:13 44.37808 23.54585 35643 ft 436 kts 264°
2026-05-07 16:13 44.37543 23.50359 35782 ft 436 kts 264°
2026-05-07 16:13 44.37279 23.46159 35910 ft 436 kts 264°
2026-05-07 16:14 44.36745 23.37755 36022 ft 437 kts 264°
2026-05-07 16:14 44.36201 23.29293 36025 ft 433 kts 263°
2026-05-07 16:15 44.35654 23.20867 36027 ft 434 kts 263°
2026-05-07 16:15 44.35104 23.12495 36029 ft 434 kts 263°
2026-05-07 16:16 44.34545 23.04094 36030 ft 434 kts 263°
2026-05-07 16:16 44.33981 22.95712 36032 ft 434 kts 263°
2026-05-07 16:17 44.33413 22.87341 36030 ft 434 kts 263°
2026-05-07 16:17 44.32836 22.78973 36030 ft 433 kts 263°
2026-05-07 16:18 44.32257 22.70630 36027 ft 433 kts 263°
2026-05-07 16:18 44.31672 22.62284 36028 ft 431 kts 262°
2026-05-07 16:19 44.31045 22.53959 36033 ft 432 kts 260°
2026-05-07 16:19 44.30190 22.45683 36032 ft 430 kts 260°
2026-05-07 16:20 44.29335 22.37394 36035 ft 430 kts 260°
2026-05-07 16:20 44.28474 22.29104 36049 ft 431 kts 259°
2026-05-07 16:21 44.27609 22.20808 36056 ft 430 kts 259°
2026-05-07 16:21 44.26741 22.12564 36057 ft 430 kts 259°
2026-05-07 16:22 44.25872 22.04355 36049 ft 429 kts 259°
2026-05-07 16:22 44.25004 21.96129 36056 ft 429 kts 259°
2026-05-07 16:23 44.24113 21.87894 36037 ft 429 kts 259°
2026-05-07 16:23 44.23220 21.79660 36050 ft 431 kts 259°
2026-05-07 16:24 44.22325 21.71451 36050 ft 429 kts 259°
2026-05-07 16:24 44.21413 21.63133 36042 ft 429 kts 259°
2026-05-07 16:25 44.20490 21.54777 36039 ft 430 kts 259°
2026-05-07 16:25 44.19574 21.46546 36035 ft 431 kts 259°
2026-05-07 16:26 44.18655 21.38331 36026 ft 429 kts 259°
2026-05-07 16:26 44.17722 21.30051 36033 ft 429 kts 258°
2026-05-07 16:27 44.16788 21.21820 36031 ft 430 kts 259°
2026-05-07 16:27 44.15850 21.13611 36026 ft 428 kts 259°
2026-05-07 16:28 44.14909 21.05419 36026 ft 429 kts 258°
2026-05-07 16:28 44.13961 20.97230 36026 ft 429 kts 259°
2026-05-07 16:29 44.13011 20.89077 36023 ft 428 kts 259°
2026-05-07 16:29 44.12059 20.80949 36022 ft 428 kts 259°
2026-05-07 16:30 44.11093 20.72760 36020 ft 428 kts 259°
2026-05-07 16:30 44.10125 20.64607 36025 ft 427 kts 259°
2026-05-07 16:31 44.09151 20.56455 36018 ft 427 kts 260°
2026-05-07 16:31 44.08177 20.48346 36025 ft 427 kts 260°
2026-05-07 16:32 44.07189 20.40181 36026 ft 427 kts 260°
2026-05-07 16:32 44.06191 20.31990 36026 ft 426 kts 259°
2026-05-07 16:33 44.05195 20.23851 36029 ft 426 kts 259°
2026-05-07 16:33 44.04187 20.15669 36035 ft 426 kts 260°
2026-05-07 16:34 44.03178 20.07524 36025 ft 427 kts 260°
2026-05-07 16:34 44.02168 19.99424 36031 ft 427 kts 260°
2026-05-07 16:35 44.01151 19.91319 36040 ft 427 kts 260°
2026-05-07 16:35 44.00120 19.83153 36049 ft 425 kts 260°
2026-05-07 16:36 43.99096 19.75089 36045 ft 425 kts 260°
2026-05-07 16:36 43.98064 19.67006 36052 ft 425 kts 260°
2026-05-07 16:37 43.97030 19.58962 36047 ft 423 kts 260°
2026-05-07 16:37 43.95986 19.50879 36036 ft 424 kts 260°
2026-05-07 16:38 43.94947 19.42884 36049 ft 424 kts 260°
2026-05-07 16:38 43.93893 19.34817 36051 ft 427 kts 259°
2026-05-07 16:39 43.92818 19.26647 36075 ft 430 kts 259°
2026-05-07 16:39 43.91737 19.18467 36067 ft 434 kts 259°
2026-05-07 16:40 43.90646 19.10265 36063 ft 434 kts 259°
2026-05-07 16:40 43.89542 19.02010 36067 ft 433 kts 259°
2026-05-07 16:41 43.88459 18.93960 36066 ft 434 kts 259°
2026-05-07 16:41 43.87347 18.85740 36071 ft 432 kts 259°
2026-05-07 16:42 43.86241 18.77604 36063 ft 432 kts 259°
2026-05-07 16:42 43.85125 18.69448 36060 ft 432 kts 259°
2026-05-07 16:43 43.84002 18.61285 36064 ft 431 kts 259°
2026-05-07 16:43 43.82881 18.53181 36056 ft 431 kts 259°
2026-05-07 16:44 43.81813 18.45507 36070 ft 429 kts 259°
2026-05-07 16:44 43.80679 18.37387 36076 ft 429 kts 259°
2026-05-07 16:45 43.79557 18.29410 36082 ft 430 kts 259°
2026-05-07 16:45 43.78416 18.21330 36080 ft 428 kts 258°
2026-05-07 16:46 43.77264 18.13234 36078 ft 428 kts 259°
2026-05-07 16:46 43.76116 18.05189 36056 ft 427 kts 259°
2026-05-07 16:47 43.74965 17.97171 36059 ft 427 kts 259°
2026-05-07 16:47 43.73805 17.89135 36037 ft 427 kts 259°
2026-05-07 16:48 43.72646 17.81144 36045 ft 426 kts 259°
2026-05-07 16:48 43.71471 17.73096 36072 ft 426 kts 259°
2026-05-07 16:49 43.70304 17.65128 36065 ft 426 kts 258°
2026-05-07 16:49 43.69118 17.57086 36046 ft 427 kts 259°
2026-05-07 16:50 43.67931 17.49066 36050 ft 425 kts 259°
2026-05-07 16:50 43.66742 17.41083 36049 ft 426 kts 259°
2026-05-07 16:51 43.65544 17.33074 36056 ft 426 kts 258°
2026-05-07 16:51 43.64343 17.25089 36048 ft 425 kts 258°
2026-05-07 16:52 43.63135 17.17099 36061 ft 425 kts 258°
2026-05-07 16:52 43.61924 17.09125 36052 ft 426 kts 258°
2026-05-07 16:53 43.60706 17.01145 36045 ft 425 kts 258°
2026-05-07 16:53 43.59484 16.93182 36055 ft 425 kts 258°
2026-05-07 16:54 43.58253 16.85199 36052 ft 425 kts 258°
2026-05-07 16:54 43.57027 16.77287 36046 ft 424 kts 258°
2026-05-07 16:55 43.55792 16.69347 36037 ft 424 kts 258°
2026-05-07 16:55 43.54550 16.61413 36035 ft 424 kts 258°
2026-05-07 16:56 43.53306 16.53497 36032 ft 424 kts 258°
2026-05-07 16:56 43.51429 16.41631 36026 ft 423 kts 258°
2026-05-07 16:57 43.50171 16.33724 36029 ft 423 kts 257°
2026-05-07 16:57 43.49096 16.25770 36031 ft 423 kts 261°
2026-05-07 16:58 43.48173 16.17782 36034 ft 424 kts 260°
2026-05-07 16:58 43.47239 16.09799 36025 ft 423 kts 260°
2026-05-07 16:59 43.46298 16.01820 36027 ft 423 kts 260°
2026-05-07 16:59 43.45354 15.93864 36015 ft 422 kts 260°
2026-05-07 17:00 43.44402 15.85898 36022 ft 423 kts 260°
2026-05-07 17:00 43.43448 15.77966 36010 ft 422 kts 260°
2026-05-07 17:01 43.42485 15.70001 36003 ft 421 kts 260°
2026-05-07 17:01 43.41520 15.62077 36000 ft 421 kts 260°
2026-05-07 17:02 43.40558 15.54214 36001 ft 421 kts 260°
2026-05-07 17:02 43.39585 15.46311 35997 ft 420 kts 260°
2026-05-07 17:03 43.38600 15.38366 35982 ft 419 kts 260°
2026-05-07 17:03 43.38090 15.34299 36105 ft 432 kts 261°
2026-05-07 17:04 43.37070 15.26114 36003 ft 438 kts 261°
2026-05-07 17:04 43.36240 15.19500 35963 ft 441 kts 261°
2026-05-07 17:05 43.35205 15.11294 35929 ft 426 kts 260°
2026-05-07 17:05 43.34701 15.07318 35918 ft 412 kts 259°
2026-05-07 17:05 43.34218 15.03523 35963 ft 400 kts 259°
2026-05-07 17:06 43.33258 14.96019 35995 ft 401 kts 259°
2026-05-07 17:06 43.33136 14.95073 36456 ft 401 kts 260°
2026-05-07 17:06 43.32674 14.91537 36036 ft 414 kts 262°
2026-05-07 17:07 43.31672 14.83719 36018 ft 419 kts 262°
2026-05-07 17:07 43.30966 14.75750 35962 ft 421 kts 267°
2026-05-07 17:08 43.30567 14.67719 35922 ft 419 kts 265°
2026-05-07 17:08 43.30168 14.59909 35967 ft 402 kts 264°
2026-05-07 17:09 43.29768 14.52245 36108 ft 402 kts 264°
2026-05-07 17:09 43.29567 14.48416 36293 ft 400 kts 264°
2026-05-07 17:09 43.29370 14.44669 36707 ft 395 kts 264°
2026-05-07 17:10 43.28969 14.37121 36750 ft 399 kts 264°
2026-05-07 17:10 43.28555 14.29441 36758 ft 404 kts 264°
2026-05-07 17:11 43.28137 14.21753 36778 ft 408 kts 264°
2026-05-07 17:11 43.27924 14.17880 36888 ft 408 kts 264°
2026-05-07 17:11 43.27712 14.14033 36987 ft 405 kts 264°
2026-05-07 17:12 43.27285 14.06356 36987 ft 406 kts 264°
2026-05-07 17:12 43.26848 13.98620 36986 ft 406 kts 264°
2026-05-07 17:13 43.26407 13.90921 36983 ft 405 kts 264°
2026-05-07 17:13 43.25963 13.83230 36983 ft 405 kts 264°
2026-05-07 17:14 43.25516 13.75580 36982 ft 405 kts 264°
2026-05-07 17:14 43.25025 13.67866 36977 ft 404 kts 261°
2026-05-07 17:15 43.24153 13.60287 36977 ft 404 kts 260°
2026-05-07 17:15 43.23267 13.52705 36977 ft 404 kts 260°
2026-05-07 17:16 43.22369 13.45059 36984 ft 403 kts 260°
2026-05-07 17:16 43.21469 13.37451 36982 ft 403 kts 260°
2026-05-07 17:17 43.20559 13.29812 36995 ft 403 kts 259°
2026-05-07 17:17 43.19651 13.22232 37005 ft 404 kts 259°
2026-05-07 17:18 43.18738 13.14648 36997 ft 404 kts 259°
2026-05-07 17:18 43.17815 13.07029 37000 ft 404 kts 259°
2026-05-07 17:19 43.16889 12.99435 37001 ft 405 kts 259°
2026-05-07 17:19 43.15964 12.91880 37006 ft 405 kts 259°
2026-05-07 17:20 43.15030 12.84309 37005 ft 405 kts 259°
2026-05-07 17:20 43.14089 12.76717 36998 ft 405 kts 259°
2026-05-07 17:21 43.13140 12.69110 36994 ft 405 kts 259°
2026-05-07 17:21 43.12188 12.61505 36983 ft 405 kts 259°
2026-05-07 17:22 43.11231 12.53915 36992 ft 404 kts 259°
2026-05-07 17:22 43.10272 12.46346 36980 ft 404 kts 259°
2026-05-07 17:23 43.09304 12.38754 36974 ft 404 kts 259°
2026-05-07 17:23 43.08329 12.31147 36983 ft 404 kts 258°
2026-05-07 17:24 43.07350 12.23553 36972 ft 404 kts 258°
2026-05-07 17:24 43.06464 12.15939 36968 ft 404 kts 263°
2026-05-07 17:25 43.05985 12.08302 36951 ft 405 kts 262°
2026-05-07 17:25 43.05477 12.00622 36949 ft 405 kts 262°
2026-05-07 17:26 43.04965 11.92997 36961 ft 405 kts 262°
2026-05-07 17:26 43.04442 11.85309 36964 ft 405 kts 262°
2026-05-07 17:27 43.03915 11.77659 36967 ft 405 kts 262°
2026-05-07 17:27 43.03384 11.70012 36962 ft 405 kts 262°
2026-05-07 17:28 43.02850 11.62398 36960 ft 405 kts 262°
2026-05-07 17:28 43.02305 11.54713 36961 ft 405 kts 262°
2026-05-07 17:29 43.01756 11.47045 36960 ft 405 kts 262°
2026-05-07 17:29 43.01204 11.39407 36958 ft 405 kts 262°
2026-05-07 17:30 43.00641 11.31680 36968 ft 405 kts 261°
2026-05-07 17:30 43.00080 11.24069 36956 ft 406 kts 261°
2026-05-07 17:31 42.99510 11.16391 36953 ft 407 kts 261°
2026-05-07 17:31 42.98930 11.08656 36952 ft 407 kts 261°
2026-05-07 17:32 42.98351 11.00993 36949 ft 408 kts 261°
2026-05-07 17:32 42.97762 10.93281 36953 ft 408 kts 261°
2026-05-07 17:33 42.97169 10.85593 36945 ft 408 kts 261°
2026-05-07 17:33 42.96571 10.77896 36952 ft 409 kts 262°
2026-05-07 17:34 42.95969 10.70204 36958 ft 409 kts 261°
2026-05-07 17:34 42.95357 10.62468 36945 ft 409 kts 261°
2026-05-07 17:35 42.94742 10.54763 36943 ft 409 kts 261°
2026-05-07 17:35 42.94122 10.47052 36948 ft 410 kts 261°
2026-05-07 17:36 42.93497 10.39359 36950 ft 410 kts 261°
2026-05-07 17:36 42.92863 10.31617 36961 ft 411 kts 261°
2026-05-07 17:37 42.92236 10.23980 36944 ft 392 kts 261°
2026-05-07 17:37 42.91937 10.20370 36927 ft 378 kts 261°
2026-05-07 17:37 42.91649 10.16896 36801 ft 367 kts 261°
2026-05-07 17:38 42.91362 10.13477 36125 ft 364 kts 261°
2026-05-07 17:38 42.91075 10.10073 35466 ft 363 kts 261°
2026-05-07 17:38 42.90787 10.06664 34810 ft 367 kts 261°
2026-05-07 17:38 42.90488 10.03157 34048 ft 373 kts 261°
2026-05-07 17:39 42.90191 9.99651 33214 ft 378 kts 261°
2026-05-07 17:39 42.89887 9.96086 32371 ft 380 kts 261°
2026-05-07 17:39 42.89624 9.92513 31545 ft 381 kts 265°
2026-05-07 17:39 42.89772 9.88918 30736 ft 384 kts 275°
2026-05-07 17:40 42.90456 9.85375 30081 ft 387 kts 286°
2026-05-07 17:40 42.91672 9.82117 30035 ft 386 kts 297°
2026-05-07 17:40 42.94848 9.76034 30066 ft 400 kts 296°
2026-05-07 17:41 42.97339 9.69281 29681 ft 401 kts 290°
2026-05-07 17:41 42.98518 9.65850 29341 ft 399 kts 290°
2026-05-07 17:41 42.99683 9.62449 29003 ft 395 kts 290°
2026-05-07 17:42 43.00828 9.59096 28667 ft 392 kts 290°
2026-05-07 17:42 43.01981 9.55713 28332 ft 390 kts 290°
2026-05-07 17:42 43.03114 9.52382 27999 ft 389 kts 290°
2026-05-07 17:42 43.04258 9.49012 27664 ft 388 kts 290°
2026-05-07 17:43 43.05391 9.45671 27333 ft 388 kts 291°
2026-05-07 17:43 43.06506 9.42382 27004 ft 387 kts 291°
2026-05-07 17:43 43.07645 9.39015 26678 ft 386 kts 291°
2026-05-07 17:43 43.08750 9.35744 26357 ft 384 kts 291°
2026-05-07 17:44 43.09874 9.32415 26040 ft 383 kts 290°
2026-05-07 17:44 43.10986 9.29113 25733 ft 383 kts 291°
2026-05-07 17:44 43.12109 9.25778 25420 ft 380 kts 291°
2026-05-07 17:44 43.13209 9.22506 25119 ft 380 kts 291°
2026-05-07 17:45 43.14311 9.19225 24809 ft 379 kts 291°
2026-05-07 17:45 43.15406 9.15963 24483 ft 379 kts 291°
2026-05-07 17:45 43.16492 9.12717 24111 ft 378 kts 291°
2026-05-07 17:45 43.17592 9.09434 23721 ft 377 kts 292°
2026-05-07 17:46 43.18674 9.06195 23313 ft 375 kts 292°
2026-05-07 17:46 43.19750 9.02973 22899 ft 374 kts 292°
2026-05-07 17:46 43.20837 8.99713 22463 ft 374 kts 292°
2026-05-07 17:46 43.21909 8.96494 22028 ft 374 kts 292°
2026-05-07 17:47 43.22986 8.93259 21606 ft 373 kts 292°
2026-05-07 17:47 43.24062 8.90021 21152 ft 372 kts 292°
2026-05-07 17:47 43.25129 8.86812 20703 ft 370 kts 292°
2026-05-07 17:47 43.26185 8.83633 20263 ft 369 kts 292°
2026-05-07 17:48 43.27249 8.80422 19828 ft 367 kts 292°
2026-05-07 17:48 43.28295 8.77266 19390 ft 367 kts 292°
2026-05-07 17:48 43.29343 8.74095 18960 ft 367 kts 293°
2026-05-07 17:48 43.30391 8.70925 18529 ft 366 kts 293°
2026-05-07 17:49 43.31439 8.67748 18094 ft 364 kts 293°
2026-05-07 17:49 43.32481 8.64588 17666 ft 363 kts 293°
2026-05-07 17:49 43.33509 8.61462 17241 ft 361 kts 292°
2026-05-07 17:49 43.34262 8.58207 16827 ft 357 kts 279°
2026-05-07 17:50 43.34614 8.54870 16557 ft 353 kts 277°
2026-05-07 17:50 43.34969 8.51488 16300 ft 355 kts 277°
2026-05-07 17:50 43.35308 8.48154 16047 ft 356 kts 277°
2026-05-07 17:50 43.35646 8.44770 15787 ft 355 kts 277°
2026-05-07 17:51 43.35975 8.41434 15531 ft 354 kts 277°
2026-05-07 17:51 43.36302 8.38096 15275 ft 353 kts 277°
2026-05-07 17:51 43.36626 8.34760 15016 ft 352 kts 276°
2026-05-07 17:51 43.36951 8.31408 14761 ft 352 kts 276°
2026-05-07 17:52 43.37273 8.28084 14506 ft 351 kts 276°
2026-05-07 17:52 43.37592 8.24760 14249 ft 350 kts 276°
2026-05-07 17:52 43.37906 8.21484 13997 ft 350 kts 276°
2026-05-07 17:52 43.38223 8.18176 13737 ft 349 kts 276°
2026-05-07 17:53 43.38537 8.14878 13484 ft 349 kts 276°
2026-05-07 17:53 43.38852 8.11560 13225 ft 348 kts 277°
2026-05-07 17:53 43.39162 8.08286 12974 ft 347 kts 277°
2026-05-07 17:53 43.39470 8.05030 12722 ft 345 kts 276°
2026-05-07 17:54 43.39779 8.01745 12464 ft 343 kts 276°
2026-05-07 17:54 43.40081 7.98521 12215 ft 341 kts 276°
2026-05-07 17:54 43.40386 7.95260 11958 ft 339 kts 276°
2026-05-07 17:54 43.40681 7.92098 11714 ft 338 kts 276°
2026-05-07 17:55 43.40977 7.88910 11465 ft 337 kts 277°
2026-05-07 17:55 43.41273 7.85717 11205 ft 335 kts 277°
2026-05-07 17:55 43.41564 7.82540 10974 ft 333 kts 276°
2026-05-07 17:55 43.41785 7.79361 10664 ft 335 kts 275°
2026-05-07 17:56 43.41992 7.76173 10270 ft 336 kts 275°
2026-05-07 17:56 43.42197 7.73042 9866 ft 331 kts 275°
2026-05-07 17:56 43.42401 7.69922 9485 ft 326 kts 275°
2026-05-07 17:56 43.42601 7.66843 9115 ft 322 kts 275°
2026-05-07 17:57 43.42799 7.63783 8776 ft 316 kts 275°
2026-05-07 17:57 43.42928 7.61791 8564 ft 312 kts 275°
2026-05-07 17:57 43.43179 7.57884 8144 ft 304 kts 276°
2026-05-07 17:57 43.43360 7.55076 7850 ft 290 kts 275°
2026-05-07 17:58 43.43533 7.52372 7668 ft 276 kts 275°
2026-05-07 17:58 43.43697 7.49792 7506 ft 269 kts 276°
2026-05-07 17:58 43.43859 7.47237 7365 ft 264 kts 276°
2026-05-07 17:58 43.44018 7.44719 7230 ft 268 kts 276°
2026-05-07 17:59 43.44180 7.42147 7059 ft 271 kts 276°
2026-05-07 17:59 43.44344 7.39547 6849 ft 270 kts 276°
2026-05-07 17:59 43.44504 7.36980 6634 ft 267 kts 276°
2026-05-07 17:59 43.44655 7.34557 6440 ft 265 kts 275°
2026-05-07 18:00 43.44814 7.31990 6247 ft 265 kts 275°
2026-05-07 18:00 43.44969 7.29493 6043 ft 266 kts 275°
2026-05-07 18:00 43.45126 7.26938 5802 ft 267 kts 275°
2026-05-07 18:00 43.45282 7.24411 5537 ft 266 kts 275°
2026-05-07 18:01 43.45370 7.22979 5389 ft 265 kts 275°
2026-05-07 18:01 43.45522 7.20481 5186 ft 260 kts 275°
2026-05-07 18:01 43.45673 7.17993 5079 ft 257 kts 275°
2026-05-07 18:01 43.45819 7.15596 4974 ft 249 kts 275°
2026-05-07 18:02 43.46090 7.11086 4974 ft 220 kts 275°
2026-05-07 18:02 43.46212 7.09059 4963 ft 206 kts 275°
2026-05-07 18:02 43.46325 7.07169 4928 ft 193 kts 275°
2026-05-07 18:03 43.46431 7.05382 4897 ft 184 kts 275°
2026-05-07 18:03 43.46536 7.03638 4954 ft 182 kts 275°
2026-05-07 18:03 43.46641 7.01863 4969 ft 189 kts 275°
2026-05-07 18:03 43.46749 7.00044 4971 ft 189 kts 275°
2026-05-07 18:04 43.46859 6.98261 4941 ft 189 kts 278°
2026-05-07 18:04 43.47387 6.96600 4593 ft 190 kts 318°
2026-05-07 18:04 43.48501 6.95902 4528 ft 169 kts
2026-05-07 18:04 43.49542 6.96478 4483 ft 169 kts 49°
2026-05-07 18:05 43.50119 6.97941 4353 ft 177 kts 66°
2026-05-07 18:05 43.50704 6.99407 4088 ft 174 kts 57°
2026-05-07 18:05 43.51427 7.00687 3973 ft 162 kts 53°
2026-05-07 18:05 43.52082 7.01875 3968 ft 152 kts 52°
2026-05-07 18:06 43.52741 7.03071 4067 ft 158 kts 53°
2026-05-07 18:06 43.53413 7.04301 3988 ft 158 kts 53°
2026-05-07 18:06 43.54075 7.05396 3943 ft 139 kts 44°
2026-05-07 18:06 43.54775 7.06303 3836 ft 142 kts 44°
2026-05-07 18:07 43.55486 7.07256 3616 ft 142 kts 46°
2026-05-07 18:07 43.56192 7.08221 3283 ft 145 kts 46°
2026-05-07 18:07 43.56907 7.09192 2901 ft 144 kts 45°
2026-05-07 18:07 43.57613 7.10146 2473 ft 144 kts 45°
2026-05-07 18:08 43.58322 7.11109 2074 ft 140 kts 45°
2026-05-07 18:08 43.58981 7.12002 1856 ft 132 kts 45°
2026-05-07 18:08 43.59652 7.12912 1545 ft 132 kts 45°
2026-05-07 18:08 43.60301 7.13793 1369 ft 132 kts 45°
2026-05-07 18:09 43.60968 7.14701 1210 ft 136 kts 45°
2026-05-07 18:09 43.61649 7.15627 1023 ft 136 kts 46°
2026-05-07 18:09 43.62323 7.16531 839 ft 135 kts 45°
2026-05-07 18:09 43.62997 7.17424 665 ft 135 kts 46°
2026-05-07 18:10 43.63661 7.18330 485 ft 135 kts 47°
2026-05-07 18:10 43.64325 7.19239 322 ft 132 kts 46°
2026-05-07 18:10 43.64990 7.20138 142 ft 133 kts 47°
2026-05-07 18:10 43.65633 7.21027 29 ft 123 kts 44°
2026-05-07 18:11 43.66099 7.21670 28 ft 70 kts 45°
2026-05-07 18:11 43.66305 7.21927 28 ft 48 kts 33°
2026-05-07 18:11 43.66495 7.22050 28 ft 6 kts 12°
2026-05-07 18:11 43.66532 7.22046 28 ft 0 kts 338°
2026-05-07 18:13 43.66536 7.22043 28 ft 3 kts 335°
2026-05-07 18:13 43.66570 7.22007 28 ft 8 kts 315°
2026-05-07 18:13 43.66624 7.21933 28 ft 13 kts 315°
2026-05-07 18:13 43.66626 7.21835 28 ft 9 kts 231°
2026-05-07 18:14 43.66611 7.21755 29 ft 7 kts 267°
2026-05-07 18:14 43.66612 7.21693 31 ft 5 kts 271°
2026-05-07 18:14 43.66613 7.21654 32 ft 1 kts 271°